Regional Weather Roundup
Issued by NWS Charleston, SC

Current Version | Previous Version | Graphics & Text | Print | Product List | Glossary On
Versions: 1 2 3 4 5 6 7 8 9 10 11 12 13 14 15 16 17 18 19 20 21 22 23 24 25 26 27 28 29 30 31 32 33 34 35 36 37 38 39 40 41 42 43 44 45 46 47 48 49 50
531
ASUS42 KCHS 260428
RWRCHS

Regional Weather Roundup
National Weather Service Charleston SC
1200 AM EDT SAT MAY 26 2018

NOTE: "fair" indicates few or no clouds below 12,000 feet with no
significant weather and/or obstructions to visibility.

Not all stations are quality controlled. Use data with caution,
especially dewpoint observations.

SCZ027-030-031-034>040-042>050-260500-
...Southeast South Carolina...

CITY           SKY/WX    TMP DP  RH WIND       PRES   REMARKS
N Charleston   FAIR      74  71  91 S6        30.02F
Waterfront Prk   N/A     77  73  87 S7        29.87F
Mount Pleasant FAIR      73  72  94 S3        30.03S
Johns Island   MOCLDY    77  73  88 S7        30.02F
Pinopolis        N/A     73  72  94 CALM      29.95S
Moncks Corner  FAIR      70  68  94 CALM      30.02F
Summerville    FAIR      70  68  94 CALM      30.03S
Beaufort MCAS  FAIR      77  74  90 S3        30.02F
Beaufort Arpt  MOCLDY    75  72  88 S5        30.01F
Hilton Head Is FAIR      77  73  88 S9        30.02F
Walterboro     FAIR      70  70 100 CALM      30.03S
Allendale      FAIR      72  72 100 CALM      30.00F

...Southern Midlands and Pee Dee...

CITY           SKY/WX    TMP DP  RH WIND       PRES   REMARKS
Georgetown     FAIR     N/A N/A N/A CALM      30.04S
Kingstree      FAIR      70  70 100 CALM      30.02F
Orangeburg     FAIR      72  70  93 SE3       30.02F
Barnwell       FAIR      73  72  94 CALM      30.01S
Aiken          FAIR      70  70 100 CALM      30.04F
Manning        FAIR      68  66  94 S3        30.02F
Columbia       FAIR      73  72  96 E6        30.00F
Sumter         MOCLDY    72  70  94 S3        30.00F
Florence       FAIR      72  69  90 S3        30.02F
Myrtle Beach   FAIR      76  72  87 S7        30.04S
N Myrtle Beach FAIR      76  72  87 S12       30.03S

$$

GAZ063-065-086>088-099>101-113>116-118-119-134>141-150-260500-
...Southeast Georgia...

CITY           SKY/WX    TMP DP  RH WIND       PRES   REMARKS
Savannah Arpt  MOCLDY    74  72  93 S6        30.01F
Hunter AAF     FAIR      76  72  86 S8        29.98F
Fort Stewart   FAIR      73  71  92 SE3       29.99F
Statesboro     FAIR      72  70  95 CALM      30.00S
Sylvania       FAIR      73  72  95 CALM      30.01F
Claxton        FAIR      74  72  93 CALM      30.00S

...CSRA, Central and far Southeast Georgia...

CITY           SKY/WX    TMP DP  RH WIND       PRES   REMARKS
Thomson        LGT RAIN  71  70  98 SW5       30.04F
Augusta-Bush   LGT RAIN  73  72  96 CALM      29.98F FOG
Augusta-Daniel LGT RAIN  74  73  97 SE3       30.00F
Swainsboro     FAIR      73  72  94 S5        30.00F
Vidalia        FAIR      73  68  83 SE5       30.00F
Eastman        FAIR      75  65  71 CALM      30.01F
Hazlehurst       N/A     76  70  82 SE6       29.97F
Alma           FAIR      74  71  91 SE5       29.99F
Waycross       FAIR      74  72  91 S5        29.99F
Jesup          FAIR      74  70  87 CALM      29.99F
Baxley         FAIR      72  72 100 S5        29.99F
Brunswick      FAIR      77  70  78 SE6       30.00F
Saint Simons   FAIR      78  73  84 S9        30.00F

$$

SCZ027-028-034-036>038-045-046-048>050-GAZ119-141-260500-
...Lake and Supplemental Coastal Observations...

STATION/POSITION TIME  TEMP    WIND        PRES    WAVE   SWELL
                       AIR SEA DIR/SP/G            HT/PER HT/PER/DIR
                 (UTC) (F)     (DEG/KT/KT) (MB)    (FT/S) (FT/S/D)
Winyah Bay       0345   75     220/  3     1017.0S
Lake Murray      NOT AVBL
ACE Basin NERRS  0345   77        CALM     1017.0S
Fort Pulaski     0400   77 80  180/  4/  8 1016.8
Sapelo Island    0400   77     180/ 11     1016.0

$$

ANZ835-935-AMZ111-154-330-350-352-354-370-450-454-472-260500-
...C-MAN and Buoy Observations...

STATION/POSITION TIME  TEMP    WIND        PRES    WAVE   SWELL
                       AIR SEA DIR/SP/G            HT/PER HT/PER/DIR
                 (UTC) (F)     (DEG/KT/KT) (MB)    (FT/S) (FT/S/D)
Buoy 41004       0410      76  190/  8/ 10 1016.9
Buoy 41008       0350   77 77  170/ 10/ 12 1016.1F   3/ 8   2/100/ 8
Folly Beach CMAN 0400   77     200/ 10/ 12 1017.4F
Capers Nearshore 0408   77 77  210/  8/ 12 1017.7F
Fripp Nearshore  0408   77 79  190/ 12/ 17 1016.3F


STATION/POSITION TIME  TEMP    WIND        PRES    WAVE   SWELL
                       AIR SEA DIR/SP/G            HT/PER HT/PER/DIR
                 (UTC) (F)     (DEG/KT/KT) (MB)    (FT/S) (FT/S/D)
5E St. Marys GA  0400      77                N/A     3/ 4
Frying Pan Buoy  0410   77 78  200/ 12/ 14 1017.1
Buoy 41025       0410   77 78  190/ 14/ 16 1017.2
Cape Lookout NC  0400          210/  7/  8 1017.2S
Buoy 41002       0410      79  190/  8/ 10 1017.9
Buoy 41010       0410   78 79  140/ 12/ 16 1017.3
St Augustine FL  0400   77 80  180/  6/  7 1016.3F


$$




USA.gov is the U.S. government's official web portal to all federal, state and local government web resources and services.